TimeAKDT,TemperatureF,Dew PointF,Humidity,Sea Level PressureIn,VisibilityMPH,Wind Direction,Wind SpeedMPH,Gust SpeedMPH,PrecipitationIn,Events,Conditions,WindDirDegrees,DateUTC
12:53 AM,57.0,54.0,89,29.94,10.0,Calm,Calm,-,N/A,,Overcast,0,2013-08-31 08:53:00
1:53 AM,55.9,54.0,93,29.93,10.0,Calm,Calm,-,N/A,,Mostly Cloudy,0,2013-08-31 09:53:00
2:53 AM,55.0,53.1,93,29.92,10.0,Calm,Calm,-,N/A,,Scattered Clouds,0,2013-08-31 10:53:00
3:53 AM,53.1,51.1,93,29.91,10.0,Calm,Calm,-,N/A,,Mostly Cloudy,0,2013-08-31 11:53:00
4:53 AM,52.0,51.1,97,29.91,10.0,Calm,Calm,-,N/A,,Mostly Cloudy,0,2013-08-31 12:53:00
5:53 AM,51.1,48.9,92,29.90,10.0,Calm,Calm,-,N/A,,Mostly Cloudy,0,2013-08-31 13:53:00
6:53 AM,52.0,50.0,93,29.89,10.0,Calm,Calm,-,N/A,,Overcast,0,2013-08-31 14:53:00
7:53 AM,54.0,50.0,86,29.90,10.0,Calm,Calm,-,N/A,,Overcast,0,2013-08-31 15:53:00
8:53 AM,53.1,51.1,93,29.90,10.0,Calm,Calm,-,0.00,Rain,Light Rain,0,2013-08-31 16:53:00
9:53 AM,55.0,52.0,89,29.89,10.0,Calm,Calm,-,0.02,Rain,Light Rain,0,2013-08-31 17:53:00
10:53 AM,55.9,53.1,90,29.89,10.0,NNW,5.8,-,0.01,,Overcast,340,2013-08-31 18:53:00
11:53 AM,57.0,52.0,83,29.89,10.0,NE,3.5,-,N/A,,Overcast,50,2013-08-31 19:53:00
12:53 PM,57.0,52.0,83,29.89,10.0,NNW,3.5,-,0.00,,Overcast,330,2013-08-31 20:53:00
1:53 PM,57.0,54.0,89,29.90,8.0,Calm,Calm,-,0.02,Rain,Light Rain,0,2013-08-31 21:53:00
2:53 PM,55.9,53.1,90,29.89,10.0,NW,3.5,-,0.01,Rain,Light Rain,310,2013-08-31 22:53:00
3:43 PM,55.4,53.6,94,29.88,10.0,Calm,Calm,-,0.01,Rain,Light Rain,0,2013-08-31 23:43:00
3:51 PM,55.4,53.6,94,29.87,10.0,Calm,Calm,-,0.01,Rain,Light Rain,0,2013-08-31 23:51:00
3:53 PM,55.9,53.1,90,29.88,10.0,NE,3.5,-,0.01,Rain,Light Rain,50,2013-08-31 23:53:00
4:53 PM,57.0,53.1,87,29.86,10.0,East,8.1,-,0.00,,Overcast,90,2013-09-01 00:53:00
4:58 PM,57.2,53.6,88,29.85,10.0,East,8.1,-,N/A,,Overcast,100,2013-09-01 00:58:00
5:53 PM,57.9,52.0,81,29.85,10.0,ESE,4.6,-,N/A,,Overcast,110,2013-09-01 01:53:00
6:53 PM,57.9,51.1,78,29.84,10.0,Calm,Calm,-,N/A,,Overcast,0,2013-09-01 02:53:00
7:53 PM,55.9,53.1,90,29.84,10.0,North,4.6,-,0.00,,Overcast,350,2013-09-01 03:53:00
8:53 PM,55.9,53.1,90,29.84,10.0,ENE,3.5,-,N/A,,Overcast,70,2013-09-01 04:53:00
9:48 PM,55.4,53.6,94,29.84,5.0,Calm,Calm,-,0.01,Rain,Rain,0,2013-09-01 05:48:00
9:53 PM,55.0,53.1,93,29.85,6.0,Calm,Calm,-,0.01,Rain,Rain,0,2013-09-01 05:53:00
10:53 PM,55.0,52.0,89,29.83,6.0,Calm,Calm,-,0.00,Rain,Rain,0,2013-09-01 06:53:00
11:53 PM,54.0,51.1,90,29.85,7.0,SE,4.6,-,0.02,Rain,Light Rain,130,2013-09-01 07:53:00